RH
28 27 27 30 33 33 34 38 48 56 59 63 71 81 92 97 102 94 68 71 74 58 64 70 95 114 99 103 102 92 91 91 94 83 67 64 63 70 79 79 79 84 87 87 86 86 89 91 90 91 92 90 85 81 76 71 68 65 64 69 77 80 78 74 72 72 74 76 77 76 77 79 81 81 82 83 84 84 87 96 104 97 82 60 44 48 53 53 52 52 56 54 50 46 38 37 40
34 30 29 29 29 29 30 33 39 42 46 58 70 79 87 92 94 74 51 59 45 31 67 93 112 110 90 100 93 77 83 90 87 66 56 63 65 70 76 79 79 80 82 82 83 85 85 85 85 84 84 81 76 73 72 71 72 73 79 85 86 80 76 75 75 75 75 76 77 80 82 83 82 80 81 85 85 87 93 101 101 85 63 50 53 59 58 61 64 65 59 50 56 56 42 42 41
42 39 37 35 32 31 27 29 34 34 38 50 66 77 84 91 84 65 49 43 27 31 77 107 113 99 83 84 70 64 79 84 69 53 56 65 68 70 73 80 79 75 77 82 88 90 88 85 83 80 78 74 70 69 69 74 80 88 92 90 84 78 77 79 78 77 78 80 84 84 83 82 80 82 87 90 90 93 98 100 91 69 55 59 64 61 63 73 75 70 55 49 66 62 47 50 42
59 54 50 45 39 37 32 31 34 34 34 41 66 77 79 83 67 52 43 40 45 55 85 104 97 82 74 70 63 67 75 72 61 57 64 68 76 82 84 84 80 79 84 92 98 99 96 92 85 80 77 72 69 71 77 86 94 98 94 87 82 81 83 82 83 84 84 87 88 84 81 82 86 92 98 98 98 99 97 95 75 56 66 71 60 53 63 79 82 77 60 53 66 64 55 52 39
85 78 70 63 55 48 39 37 37 37 41 47 68 72 64 67 50 35 37 55 72 86 105 94 72 74 81 77 74 72 67 66 66 66 71 81 93 98 98 96 93 90 93 97 100 101 98 94 87 83 78 73 74 82 92 99 100 98 93 88 88 90 89 88 90 91 90 89 85 83 86 92 96 100 103 103 101 97 91 81 56 58 81 72 52 47 60 81 85 76 58 51 68 70 57 46 35
101 97 90 84 78 71 57 47 42 46 56 61 73 66 49 46 37 32 43 67 86 105 110 78 63 80 92 91 81 71 65 67 69 68 73 90 103 105 105 106 106 102 101 101 101 99 96 90 82 78 74 76 82 88 97 101 100 99 98 97 97 95 91 91 90 92 91 87 85 90 98 100 101 102 104 102 98 94 84 62 43 65 87 67 49 44 60 88 85 67 55 58 79 77 61 51 37
97 101 102 100 97 94 83 66 56 59 64 68 79 71 48 35 31 40 52 73 95 107 96 76 79 87 88 87 80 76 71 67 70 74 81 95 103 103 106 108 109 109 107 106 105 99 90 82 75 73 76 84 89 93 99 102 101 99 100 100 96 91 89 88 86 89 90 91 95 100 101 99 102 100 97 97 97 89 67 45 39 67 86 64 43 44 68 88 75 60 60 66 77 76 66 51 32
70 82 89 97 100 102 102 91 81 80 79 78 83 73 53 42 37 44 64 85 92 88 87 89 90 87 85 84 88 92 83 75 79 86 90 97 99 98 105 109 108 107 107 107 104 93 83 80 79 82 89 98 101 102 102 98 96 95 98 101 96 92 90 87 87 92 97 101 99 96 96 99 103 92 90 93 85 68 49 39 45 72 86 57 37 57 80 77 65 62 65 62 61 62 52 37 26
47 55 61 69 77 85 92 98 101 101 98 93 93 83 67 61 58 58 70 81 73 67 83 92 91 94 98 99 102 100 92 85 84 89 89 90 94 99 106 108 109 107 105 103 97 90 88 91 94 97 102 106 104 99 93 90 93 96 101 104 101 100 96 92 95 98 102 99 89 91 94 98 99 89 93 89 70 58 47 45 62 83 76 46 45 71 78 68 61 60 59 55 57 55 40 31 27
34 40 44 48 52 58 62 70 85 97 104 104 104 100 90 85 87 87 78 71 62 62 71 78 91 99 100 103 104 100 93 87 86 93 96 96 98 102 105 105 108 106 102 98 95 97 100 105 103 101 102 102 98 92 92 94 99 101 101 104 105 102 98 97 100 101 101 91 90 97 91 91 95 97 100 80 65 65 57 63 80 79 58 45 56 71 74 71 63 61 59 54 57 51 34 31 28
20 25 31 36 40 43 45 45 53 66 80 90 97 99 101 101 101 102 95 87 78 73 71 73 89 95 93 95 96 98 95 87 88 96 101 103 103 102 103 105 106 101 98 98 100 103 103 106 104 103 103 100 97 95 99 100 101 101 100 106 105 102 100 99 100 100 98 91 98 101 88 94 100 98 89 61 54 69 75 82 83 64 51 55 63 70 78 77 66 65 61 50 48 41 33 33 30
12 14 17 21 26 29 34 36 36 40 46 55 64 72 85 97 98 99 99 101 97 94 94 91 96 96 95 95 91 95 93 87 87 93 99 104 106 103 103 104 105 101 99 100 102 105 101 101 104 105 102 99 99 99 101 100 101 101 103 105 97 99 103 101 102 99 96 89 94 100 92 98 101 86 66 48 54 80 90 83 69 58 57 63 69 72 70 67 64 62 56 47 45 39 36 34 31
11 11 12 13 15 17 20 23 26 28 31 33 37 43 53 64 71 75 77 83 87 93 97 96 101 101 103 104 97 96 96 93 92 95 99 103 105 103 102 102 103 102 102 101 100 103 100 100 102 102 104 102 99 98 101 100 97 93 93 98 92 96 104 102 102 101 99 89 87 100 101 100 96 75 59 63 81 95 89 70 63 65 69 70 68 64 56 55 59 61 58 53 47 39 37 33 29
13 12 12 11 11 12 13 14 17 19 22 22 24 27 30 34 39 43 46 49 54 60 63 66 77 86 94 96 94 98 102 101 99 98 99 102 104 103 104 101 100 100 102 101 102 103 100 101 101 104 107 101 100 101 100 87 72 68 75 94 99 98 99 89 91 103 100 86 83 92 100 103 91 73 73 90 100 94 78 67 72 72 66 62 55 53 55 58 62 68 68 62 55 44 41 35 26
14 14 13 13 12 12 12 11 12 13 15 14 14 16 17 21 22 23 27 30 31 31 32 35 41 48 55 60 66 76 84 92 93 93 96 98 96 94 97 99 102 102 102 102 102 104 103 101 97 96 93 94 100 87 73 65 62 70 82 99 99 88 82 71 75 87 79 74 88 99 103 98 80 77 94 102 99 90 78 72 71 61 54 56 58 65 74 73 72 76 75 70 64 51 42 35 26
15 15 14 14 14 14 13 13 12 12 11 11 11 11 12 15 16 18 21 21 21 19 19 20 21 24 27 30 35 39 46 55 59 64 68 69 71 70 74 82 93 97 96 96 94 100 102 92 89 93 87 88 81 52 49 69 83 94 94 91 80 69 67 63 65 66 66 81 101 103 92 78 73 90 103 100 99 93 80 70 64 64 73 82 84 89 92 86 79 80 80 74 71 62 46 34 27
16 15 15 16 16 16 15 15 15 13 12 10 10 9 10 12 13 15 15 15 15 14 15 15 15 17 19 20 22 23 27 30 29 32 33 43 54 53 56 59 66 72 71 83 96 100 91 73 80 93 87 76 54 42 61 81 89 91 89 84 73 72 72 67 72 80 90 95 95 88 77 76 87 103 103 96 97 90 80 77 81 90 99 100 98 101 94 85 85 85 85 75 70 72 56 37 27
17 16 16 16 16 17 17 17 16 16 14 11 11 11 12 12 11 11 10 11 11 11 12 13 13 13 14 15 17 22 27 30 26 24 26 43 53 43 45 43 44 55 56 74 87 76 70 65 69 71 65 57 48 60 81 88 94 88 88 91 85 83 79 77 89 102 102 88 81 81 82 93 103 105 100 97 97 94 91 93 99 100 101 101 100 102 90 84 90 90 89 79 73 72 57 40 29
17 17 16 16 17 16 16 17 16 15 14 14 14 14 15 14 11 12 12 11 10 11 10 10 11 11 13 12 15 24 26 27 29 38 44 49 53 46 46 40 38 52 53 60 61 49 52 49 45 46 46 50 56 77 92 95 100 96 92 90 89 90 86 91 99 99 93 81 76 76 81 96 104 104 102 99 100 100 99 100 101 99 100 101 101 100 92 87 87 83 77 73 79 74 56 46 40
16 16 16 16 16 16 16 16 15 14 15 16 16 16 17 15 14 14 13 13 13 12 11 13 13 9 11 9 12 18 19 24 34 53 60 50 52 50 43 35 31 37 38 43 46 42 40 32 40 51 52 60 67 76 82 86 96 104 100 87 90 97 93 94 92 86 82 73 65 70 87 101 103 107 107 100 99 100 100 102 100 99 101 99 102 100 89 85 81 73 66 69 84 78 64 65 56
16 16 16 15 15 15 15 14 14 14 14 15 15 16 16 15 15 15 15 16 14 13 14 16 16 12 12 12 12 14 22 34 36 42 49 46 47 42 34 32 31 33 32 32 33 35 34 34 49 50 44 59 71 74 76 81 95 106 100 94 97 100 99 97 90 83 74 62 56 66 84 97 101 107 110 102 99 101 99 102 101 99 100 99 103 97 83 84 82 76 80 89 94 84 80 86 74
15 15 15 15 15 14 14 13 14 14 14 14 14 14 14 14 14 14 15 15 14 16 18 16 15 16 15 14 13 17 30 44 44 42 39 38 42 39 36 33 31 32 27 24 26 31 33 32 38 35 33 46 57 74 89 90 94 98 98 99 101 100 102 100 87 73 64 59 59 66 72 78 83 88 102 104 99 99 98 100 100 99 100 100 101 97 90 87 83 79 83 90 90 87 92 95 84
14 15 15 15 15 14 14 13 13 13 13 13 14 13 13 13 13 13 13 13 13 15 18 16 16 22 25 24 20 22 36 45 47 48 41 40 47 46 40 31 26 26 24 27 29 31 30 26 31 30 28 30 35 58 88 100 98 98 102 103 101 99 102 101 86 67 68 77 82 88 86 82 82 87 99 104 99 96 98 100 99 101 99 100 101 103 100 82 84 92 84 86 85 82 92 102 91
12 13 13 14 14 14 14 13 13 13 14 13 13 13 13 13 12 12 12 12 12 11 13 14 17 24 30 29 24 22 29 37 45 59 70 76 74 60 46 38 34 33 34 36 30 27 24 20 23 20 19 30 50 77 93 94 86 78 85 97 103 100 101 106 95 82 87 94 97 99 95 91 91 93 92 97 102 96 97 101 99 100 99 99 100 105 96 65 78 103 93 95 94 78 81 100 102
11 12 12 12 13 13 14 14 13 13 13 12 12 13 13 13 12 12 12 12 11 11 10 12 13 16 24 29 29 30 31 39 59 85 104 103 89 69 55 49 43 40 39 35 27 26 28 25 22 20 25 39 66 93 86 63 47 39 54 81 97 100 102 103 98 98 100 95 95 98 97 96 96 94 90 95 102 95 93 101 101 100 99 100 98 103 87 52 71 103 96 97 102 90 83 92 101
11 11 11 11 11 12 13 13 12 13 13 12 13 13 13 12 12 12 12 12 11 11 10 11 11 11 22 27 28 37 40 43 58 79 92 85 71 62 55 47 38 34 31 30 29 33 49 57 53 54 51 44 49 57 47 30 17 27 67 93 95 98 99 100 100 98 96 94 97 101 99 99 99 98 99 100 103 99 94 98 103 101 99 100 100 100 76 46 68 100 99 96 100 100 96 96 98
13 12 12 11 11 11 12 12 12 13 12 12 13 12 13 12 12 12 12 12 12 12 11 11 12 12 18 20 20 25 27 31 42 60 69 63 57 52 46 39 33 31 29 31 29 34 68 90 90 89 76 59 50 36 26 21 13 39 94 106 95 101 101 98 101 96 94 98 100 102 101 100 100 99 98 96 97 99 98 100 104 101 99 101 97 87 64 48 69 95 102 101 99 100 101 100 96
14 13 13 12 12 12 11 12 11 12 12 12 12 12 12 11 12 13 13 13 12 12 12 12 12 13 13 13 14 15 17 23 33 51 58 54 54 51 44 40 38 37 33 31 28 40 79 104 102 93 83 75 57 37 36 34 25 43 82 97 97 101 99 93 96 99 98 100 100 99 102 103 101 100 98 92 89 94 101 102 102 102 100 96 86 76 59 48 64 88 101 102 99 98 100 101 96
17 16 16 15 14 14 13 12 12 12 12 12 12 13 13 13 14 14 13 12 13 14 14 14 13 13 13 12 13 16 17 20 32 52 53 46 50 52 45 38 40 44 40 39 50 75 96 102 99 85 79 78 55 43 53 50 42 42 51 78 100 99 97 97 95 100 101 100 102 99 100 103 102 101 99 97 94 96 102 102 102 101 92 81 72 66 50 38 61 91 102 103 100 97 99 101 98
20 20 19 18 17 16 15 14 14 14 14 14 14 14 14 15 15 14 14 12 14 16 15 17 17 15 15 14 15 17 18 23 40 54 50 43 45 43 35 34 47 52 48 47 56 84 100 99 96 74 57 59 55 56 58 45 41 38 34 61 94 99 98 102 100 102 103 101 102 101 101 101 101 101 100 101 100 96 99 99 95 87 75 63 52 47 36 36 72 100 102 102 101 99 99 100 100
21 21 20 21 19 19 19 18 17 16 16 16 15 16 16 17 17 16 15 15 16 17 17 20 20 20 19 17 18 21 23 28 42 53 51 45 37 32 32 38 44 44 48 52 44 53 72 77 75 62 48 46 48 48 40 32 33 38 50 75 97 104 100 100 101 99 101 103 102 102 100 96 96 99 100 103 102 99 97 91 83 75 62 46 36 35 34 49 85 102 102 102 100 99 100 99 100
20 20 20 21 20 21 22 21 20 19 19 18 18 18 18 19 20 19 17 16 18 17 21 25 23 22 21 20 20 22 26 30 38 42 41 40 35 37 45 46 41 44 56 58 48 47 49 43 42 48 48 40 34 29 26 29 34 33 40 55 70 92 103 101 99 98 100 101 101 102 97 95 96 98 102 102 102 100 93 84 74 63 46 32 31 36 46 72 95 100 101 102 99 100 100 100 99
19 19 20 21 22 22 23 23 22 21 20 20 21 21 22 24 23 24 19 16 20 22 26 29 27 24 22 23 21 25 30 29 29 32 42 56 53 47 50 46 39 46 55 50 43 40 33 26 29 34 32 28 25 23 24 26 32 34 31 27 32 66 97 101 99 100 101 101 101 101 98 98 99 101 103 99 96 88 77 67 54 42 30 26 32 40 64 94 100 97 101 103 101 100 99 100 100
19 19 20 21 22 22 23 24 22 22 23 23 25 24 26 28 27 27 22 19 25 28 30 32 31 25 23 24 21 27 27 25 45 67 76 74 57 44 45 44 40 44 48 40 30 26 27 27 28 26 21 24 24 22 23 22 28 35 36 25 24 64 100 100 99 100 99 101 102 101 99 101 99 98 95 87 81 69 57 45 33 30 26 27 31 38 71 100 99 98 101 103 103 100 99 99 100
20 19 20 20 21 22 23 24 21 22 27 25 24 28 32 32 32 31 26 25 31 34 32 32 33 27 23 24 23 29 28 34 70 93 80 61 51 49 54 58 55 47 38 33 37 41 38 29 24 24 20 24 27 25 24 24 28 28 29 23 26 76 108 97 98 101 100 102 102 101 101 100 98 94 87 79 71 58 45 33 26 29 27 27 29 42 79 100 99 100 99 102 104 100 100 99 99
19 19 19 19 20 21 22 24 22 21 28 27 24 32 38 34 35 36 30 31 36 36 35 33 34 29 23 26 27 31 33 38 55 63 53 47 54 61 65 64 51 37 34 43 53 46 29 21 24 26 22 22 25 25 25 28 30 25 28 26 30 76 104 98 102 100 99 104 101 101 101 100 99 95 87 78 67 50 35 29 26 29 30 29 27 48 91 102 98 101 99 100 102 99 100 99 100
19 19 20 20 20 21 22 24 24 21 26 29 25 34 41 36 39 41 35 37 39 37 38 39 37 32 26 27 30 33 33 32 34 42 48 50 58 62 55 47 40 38 43 44 37 26 21 24 26 25 24 27 29 30 30 29 28 26 29 28 39 82 104 98 102 102 100 102 100 101 101 99 98 93 83 70 56 42 31 29 30 31 34 34 29 55 95 102 98 101 99 99 100 101 100 99 100
19 20 20 20 20 22 22 24 26 21 22 28 29 35 41 38 41 44 39 41 43 38 38 40 38 34 29 28 33 32 31 45 57 64 69 61 60 63 55 49 48 42 34 27 21 20 26 29 26 27 30 34 39 41 40 35 29 29 34 32 40 78 103 100 99 101 100 100 101 102 100 98 94 82 67 54 42 35 31 30 34 36 36 34 36 66 97 100 99 101 98 101 101 100 100 100 100
20 21 20 21 21 21 21 23 26 20 18 28 33 36 40 39 40 42 39 39 44 41 38 41 41 35 29 28 32 31 42 77 96 93 94 80 66 72 74 64 48 29 19 20 28 31 34 43 43 35 30 31 36 37 37 40 35 32 40 39 33 53 85 101 103 100 100 101 100 98 101 99 85 67 51 43 37 33 34 34 39 41 38 35 40 72 101 99 99 102 99 100 101 100 100 100 100
21 20 20 21 20 21 22 23 24 20 19 28 34 34 36 36 35 37 38 37 41 44 40 41 41 33 27 29 31 32 44 74 91 93 100 92 75 76 70 49 29 21 29 43 61 73 75 83 77 52 36 31 34 36 38 44 44 50 66 59 40 39 51 70 90 101 99 96 96 98 101 88 67 54 42 37 34 34 36 37 40 41 41 43 44 68 99 100 99 102 100 100 100 100 100 100 101
21 20 21 21 21 22 22 22 22 19 20 27 31 28 30 34 34 37 38 34 37 41 39 38 39 33 28 29 30 32 35 54 82 97 101 94 79 67 46 31 32 44 68 87 97 102 98 101 98 82 71 58 51 49 48 51 46 64 97 86 63 64 62 62 80 98 95 92 98 97 86 66 49 45 39 33 33 34 38 39 40 38 38 47 50 64 90 100 100 100 100 101 100 99 101 101 101
21 21 22 22 21 22 23 22 21 20 22 28 29 24 28 34 34 35 34 31 33 36 34 33 34 30 28 28 28 28 23 32 64 87 100 101 80 54 37 45 72 89 99 101 95 95 95 98 100 99 99 92 83 65 52 57 53 70 104 95 78 86 91 90 92 98 97 97 101 92 76 61 47 42 38 34 32 33 39 43 42 39 37 45 57 69 82 93 99 101 99 99 99 98 100 100 100
22 22 22 23 22 22 23 22 20 21 23 26 26 23 27 32 32 33 31 28 30 31 31 29 29 28 27 27 25 26 31 40 66 90 103 95 68 55 59 76 99 106 99 92 90 94 95 95 98 100 100 99 100 84 64 70 76 89 106 94 87 95 97 100 100 99 100 101 102 95 85 70 49 40 37 35 34 34 41 46 44 42 39 40 55 72 83 89 94 99 101 101 100 99 99 101 100
23 23 24 23 23 23 24 23 23 25 25 24 25 23 25 29 30 30 27 27 27 28 29 26 26 25 24 25 22 34 68 85 92 101 96 75 64 78 90 92 96 97 95 93 93 96 96 97 99 101 98 96 101 98 88 90 95 102 105 95 94 100 99 99 100 100 101 102 103 98 90 69 45 40 41 40 41 40 43 47 44 43 42 40 46 61 78 90 94 95 96 99 101 102 102 103 102
25 25 25 25 25 26 25 25 25 27 27 25 25 25 25 27 29 30 27 26 25 26 28 25 26 25 22 24 19 33 80 105 102 98 84 65 70 89 97 93 96 99 98 98 97 98 101 102 102 102 101 99 100 101 98 100 101 101 101 100 99 99 100 100 100 101 100 100 102 100 89 65 46 48 52 52 51 48 45 44 42 43 45 43 43 48 61 79 93 95 93 93 95 97 99 102 104
26 26 27 27 27 27 27 29 28 29 29 27 28 28 26 26 29 30 27 26 26 25 25 25 25 25 21 21 19 21 46 77 96 90 69 65 78 91 97 96 97 100 101 103 103 102 102 102 103 103 102 102 101 100 100 98 102 103 98 96 99 99 99 100 100 100 99 100 101 99 89 67 53 55 57 55 52 48 44 40 39 42 45 48 48 48 51 61 77 89 93 93 92 92 94 96 99
27 27 28 28 27 29 29 30 30 29 28 28 30 29 27 30 30 29 29 30 28 23 25 29 28 25 25 27 26 20 21 46 75 70 60 79 97 97 101 102 98 97 98 101 102 101 102 102 101 100 98 100 100 100 101 99 102 105 97 93 98 100 99 99 100 100 99 101 98 89 78 65 57 55 54 52 48 44 41 40 40 41 43 48 51 52 53 54 61 71 78 82 84 87 92 92 91
27 28 28 27 27 28 29 31 32 31 29 30 32 31 31 35 35 35 34 32 32 31 26 28 30 27 28 31 24 26 49 67 67 63 75 95 100 97 102 105 100 94 93 97 100 100 102 101 101 101 99 100 101 99 99 100 102 103 98 97 101 98 97 98 99 99 99 100 94 78 64 59 56 54 52 50 46 45 44 45 45 44 44 46 50 53 54 55 55 58 61 63 64 67 71 73 73
28 28 27 27 27 27 28 31 32 32 32 33 33 31 33 38 40 38 35 37 51 59 42 32 44 43 38 42 35 40 83 99 72 69 96 104 99 101 102 102 103 98 92 96 99 97 100 102 102 102 101 100 100 100 99 99 103 104 99 101 104 97 94 98 98 97 99 100 95 77 60 57 57 55 55 51 49 49 50 52 52 51 50 49 51 53 54 56 56 56 56 56 56 55 55 55 55
28 27 27 28 27 27 28 30 33 34 36 37 35 32 35 43 45 38 33 36 48 60 57 60 75 70 50 46 45 52 76 73 49 64 98 104 100 104 100 100 106 97 88 91 96 98 100 101 102 103 103 102 100 99 100 100 100 102 101 102 103 98 95 100 99 97 99 100 98 79 55 49 52 53 55 53 50 51 52 55 54 52 52 52 52 52 51 53 53 52 51 51 51 51 51 51 51
29 29 28 29 27 27 28 31 34 34 34 34 31 31 37 43 41 35 36 40 40 43 51 63 77 81 67 46 47 76 85 48 20 49 94 105 101 104 102 101 102 94 90 94 97 99 100 100 103 102 96 98 103 100 98 101 100 99 101 101 101 100 99 101 100 100 100 100 100 84 60 53 49 44 48 50 47 48 49 50 51 50 48 47 46 47 47 47 46 45 44 43 43 42 42 42 43
31 31 29 32 34 30 28 31 34 32 34 36 33 36 45 45 40 39 40 41 44 44 44 54 72 89 91 67 54 78 87 51 24 45 90 108 101 100 102 99 101 100 97 99 101 102 102 100 101 102 94 88 95 101 100 99 99 99 99 100 100 100 101 101 100 101 100 100 101 92 81 80 67 44 39 42 42 43 44 45 48 49 48 47 44 42 43 44 44 45 44 43 42 41 40 39 39
34 32 32 37 42 41 39 40 38 35 38 41 36 38 46 47 43 42 42 43 52 57 54 66 87 94 97 93 78 69 59 46 39 42 69 99 102 99 101 98 99 102 100 101 104 102 101 99 97 101 101 88 82 94 103 100 98 100 100 100 101 100 100 101 100 102 101 100 101 98 92 94 91 71 50 40 39 41 41 42 43 46 47 47 45 42 40 41 41 42 42 42 41 40 40 39 39
35 36 37 42 49 51 51 51 46 40 46 48 43 47 56 56 47 44 51 53 58 66 67 80 102 100 92 92 84 70 55 48 48 38 46 84 106 101 97 96 97 101 104 104 101 97 99 101 97 97 104 101 89 86 96 103 100 100 100 100 101 100 100 100 99 100 102 100 100 101 98 96 99 94 72 52 46 44 43 45 44 45 46 47 46 43 40 40 39 38 38 38 40 41 41 41 40
39 45 46 44 48 47 49 64 66 60 66 64 54 58 68 68 56 49 51 49 53 65 66 77 97 92 78 72 70 74 76 73 72 59 47 69 99 103 95 95 98 101 103 104 100 96 98 102 100 98 100 105 98 78 74 87 92 95 99 97 98 101 100 101 99 99 101 102 99 99 101 99 95 90 74 60 57 54 46 46 48 48 47 48 50 48 47 45 42 42 42 41 41 42 44 45 45
44 52 56 52 59 64 67 79 78 69 79 80 65 55 56 65 64 53 49 49 52 54 47 57 78 75 67 75 86 93 96 96 95 87 74 73 86 97 99 98 101 103 102 105 101 92 96 101 101 100 99 104 103 76 55 59 68 80 85 79 85 99 101 100 99 99 100 102 102 99 99 99 95 84 65 50 56 59 49 45 52 54 52 53 55 54 55 54 51 50 50 49 48 47 46 46 46
51 53 63 63 76 93 92 89 85 84 95 101 90 67 50 56 63 58 56 52 45 46 53 70 88 89 87 93 99 100 99 101 99 94 96 95 92 96 101 100 101 100 98 101 101 93 96 103 101 100 98 102 105 83 58 55 55 60 67 66 71 88 100 102 100 99 101 101 101 101 98 98 99 89 64 44 45 52 50 48 53 61 65 68 69 66 63 61 59 57 57 55 56 56 52 48 46
56 48 62 67 78 94 95 94 98 99 99 99 101 89 63 51 53 52 53 51 52 69 87 96 97 98 99 97 97 97 97 98 96 94 99 102 100 101 105 104 102 102 99 98 99 97 99 104 103 101 97 95 95 82 69 73 67 54 56 62 62 68 86 103 104 98 100 101 101 103 101 98 98 89 69 50 45 50 54 54 57 68 75 79 83 78 68 64 63 61 62 62 63 64 62 58 53
Wind_Speed
79 79 78 78 79 78 79 78 78 77 76 75 75 75 76 77 78 77 72 70 69 65 67 68 69 72 69 71 73 69 68 69 71 71 69 68 68 68 69 71 73 73 73 73 74 74 75 75 76 77 77 78 79 79 80 81 81 81 82 82 82 82 82 83 84 84 85 85 86 87 88 89 90 91 92 91 89 86 85 83 79 76 74 75 77 75 70 67 64 60 56 56 56 57 56 55 54
80 80 80 80 80 79 79 79 79 79 78 78 78 79 79 81 81 78 73 73 70 64 69 71 73 76 71 73 74 70 70 72 73 72 70 71 70 70 72 72 73 74 74 75 75 76 76 77 77 78 78 79 80 81 81 82 82 83 82 83 83 83 83 84 85 86 86 87 88 89 89 91 91 91 90 87 84 81 79 77 74 72 74 76 74 69 65 64 60 55 54 55 57 57 52 49 51
82 82 82 82 81 81 80 79 80 80 79 80 81 82 83 84 84 79 75 75 71 67 73 76 77 78 75 76 75 72 73 74 75 73 72 73 73 73 74 74 73 74 75 75 76 76 77 77 77 78 80 81 81 82 82 82 82 82 83 84 84 84 85 86 87 87 87 88 90 91 91 91 90 89 85 81 78 75 74 72 70 72 74 71 66 64 64 62 55 51 53 56 55 51 46 46 48
83 83 83 83 83 82 81 80 80 80 80 81 84 86 86 87 86 79 74 74 74 74 77 80 79 79 79 78 77 76 75 76 76 74 74 74 75 76 76 76 75 75 76 76 77 78 79 78 79 81 81 81 81 82 82 82 82 83 85 85 85 86 87 88 89 89 90 91 91 91 90 88 85 81 78 75 72 70 68 67 69 72 68 63 62 63 63 58 51 50 55 56 51 46 44 46 46
85 85 85 85 85 84 83 82 82 81 82 83 86 90 88 89 85 77 73 75 78 79 82 83 80 80 81 80 79 78 77 77 77 76 76 75 76 77 76 76 76 77 77 78 79 80 81 81 82 82 81 81 82 82 82 83 84 86 87 87 87 88 89 90 90 91 91 91 90 89 85 81 77 74 72 70 68 66 65 67 70 67 62 61 63 64 62 55 52 55 57 53 48 43 42 44 46
88 87 87 87 86 86 85 84 83 83 84 85 88 91 89 88 83 76 75 78 81 82 86 84 80 81 83 83 82 80 79 78 79 78 77 76 77 77 77 78 79 80 80 81 81 82 83 83 83 83 83 83 83 84 84 85 86 88 88 89 89 90 91 91 91 91 90 89 87 82 75 72 71 70 69 69 68 66 67 69 68 63 60 62 64 65 62 56 55 58 54 49 45 43 44 48 49
89 89 89 88 88 88 87 86 85 85 87 87 90 93 90 85 80 78 79 81 83 86 87 84 83 84 84 85 84 82 81 80 80 79 77 76 77 78 80 82 83 83 84 84 84 85 85 84 84 84 84 84 85 84 85 86 88 89 90 91 91 91 91 90 90 89 88 84 77 72 71 71 69 69 69 69 68 68 69 69 66 62 60 63 66 66 62 57 57 56 51 47 45 46 48 49 47
90 90 90 90 89 88 89 88 88 88 89 90 92 95 90 83 80 80 82 84 86 87 86 86 86 85 86 86 84 84 83 81 81 79 78 78 79 80 81 83 84 85 86 86 86 86 85 86 86 86 86 85 85 85 86 88 90 90 90 89 87 87 87 87 87 85 79 72 69 71 73 71 69 69 69 67 67 69 69 68 66 62 60 64 66 63 58 57 56 53 48 45 46 46 45 45 42
90 90 90 90 89 89 88 89 90 90 91 92 94 96 90 83 82 83 84 87 89 86 86 87 87 87 87 87 86 86 84 83 82 81 81 81 82 82 82 84 86 87 87 86 86 86 86 87 87 86 85 85 86 87 88 90 90 88 84 81 81 82 82 81 78 73 69 69 72 72 70 68 69 69 66 65 68 69 69 68 65 59 60 65 63 57 55 55 52 48 45 44 45 45 44 43 40
89 90 91 91 91 90 89 89 90 91 93 93 95 96 89 85 84 86 88 89 89 87 87 88 88 89 89 88 88 87 86 86 84 84 84 83 83 83 84 86 87 86 86 86 86 87 88 88 86 86 87 87 88 89 89 88 85 80 77 76 76 74 74 71 68 67 68 70 69 66 65 66 66 65 63 66 69 69 69 67 61 59 62 62 56 53 54 51 47 46 45 44 43 43 45 44 39
87 88 89 90 90 91 91 90 90 91 94 96 96 93 89 87 86 88 91 90 90 89 90 89 90 92 90 90 90 89 89 88 87 86 86 86 86 86 86 87 88 88 88 88 88 89 90 90 90 91 90 89 88 87 85 82 78 76 76 75 71 69 69 68 67 70 69 65 63 63 64 63 61 62 65 69 70 68 67 63 60 61 60 55 52 52 50 47 46 47 45 42 41 44 45 43 39
86 87 87 88 89 90 90 90 91 92 94 97 96 90 89 89 89 92 92 91 91 91 93 93 93 94 92 93 92 92 92 90 89 88 89 89 88 89 90 90 90 89 88 89 90 92 92 92 92 90 89 86 85 84 82 81 81 83 81 77 76 74 70 69 70 69 66 63 63 63 64 62 61 64 69 73 71 66 63 61 61 59 53 49 49 48 45 45 45 44 43 42 43 44 43 41 39
86 86 86 86 87 88 89 89 91 91 94 97 93 89 88 87 91 95 93 92 93 95 97 95 94 95 94 95 94 93 93 91 91 90 90 89 89 90 90 90 89 88 88 90 90 90 91 90 90 89 88 86 86 86 85 85 85 85 83 79 78 73 67 70 72 68 65 64 64 63 64 63 64 69 72 71 66 62 61 62 58 51 47 46 45 45 44 45 44 43 43 44 43 41 39 38 37
87 87 86 86 86 86 87 88 90 91 94 97 91 87 85 85 91 93 92 93 94 96 97 93 94 95 95 95 94 94 93 93 92 92 91 90 90 91 91 92 91 90 88 88 87 87 87 87 88 89 88 87 87 86 84 82 82 82 80 74 68 66 68 74 73 67 66 66 67 66 63 63 67 72 69 64 60 60 60 55 48 44 43 44 45 46 45 45 43 41 41 41 41 39 37 36 34
88 88 87 87 86 87 88 88 90 91 95 95 88 85 84 85 90 90 91 93 93 95 94 91 92 93 93 94 94 94 94 93 94 94 92 90 91 93 93 93 91 90 88 86 86 87 87 86 85 84 83 81 78 78 79 80 79 76 72 68 66 69 73 73 69 66 69 70 67 65 63 66 71 69 63 59 58 57 51 45 42 43 45 45 45 43 40 40 40 39 39 40 40 38 37 36 34
89 88 87 87 87 88 88 89 90 91 95 92 87 85 82 85 89 90 91 93 93 92 92 91 90 90 90 92 92 93 92 92 94 93 91 90 89 89 88 86 85 86 86 86 87 86 85 84 80 77 76 74 74 75 75 74 71 67 66 68 71 73 71 68 67 68 69 66 61 62 67 71 69 62 56 54 52 48 44 43 44 44 44 42 40 36 35 38 41 42 41 40 40 39 38 36 34
88 88 87 88 88 89 89 90 92 93 95 90 85 84 81 86 89 90 91 91 92 91 91 91 89 89 89 90 90 90 88 88 91 91 89 84 81 82 84 83 82 81 81 79 76 76 78 78 74 72 73 75 75 72 70 70 68 67 67 67 67 67 67 68 66 65 63 61 62 67 70 68 63 57 53 50 45 43 43 43 41 41 39 35 34 34 37 42 44 44 41 43 44 41 37 34 31
87 86 87 88 88 90 90 92 93 94 94 88 84 82 84 90 88 88 90 90 90 89 90 89 88 88 87 88 87 85 83 83 85 84 80 75 75 81 83 83 81 78 76 75 73 75 76 74 72 73 74 73 71 65 62 64 62 62 61 60 62 64 66 65 61 60 60 62 65 67 65 60 54 47 44 42 39 39 38 35 36 37 35 33 34 36 40 42 42 42 42 46 45 39 35 32 28
85 85 86 86 87 90 91 93 94 92 90 86 84 83 88 92 87 87 90 88 88 87 88 87 86 85 85 86 84 82 81 81 81 75 71 72 75 78 78 80 80 77 75 76 77 78 76 76 77 77 75 72 66 59 57 58 58 60 60 61 63 63 60 58 59 62 62 62 61 62 59 55 51 43 39 36 32 34 34 33 36 36 36 37 39 39 39 39 42 45 45 46 41 35 32 28 23
84 85 84 85 87 89 91 92 92 88 86 86 84 84 90 92 87 87 89 88 88 87 86 83 83 84 85 83 81 81 80 79 74 68 70 75 75 75 76 79 80 78 77 77 77 77 77 77 75 73 72 68 61 58 60 62 61 61 61 61 58 56 57 59 63 63 62 59 56 58 57 55 54 50 47 40 33 35 38 37 37 36 38 39 39 38 36 40 47 46 44 41 35 29 25 22 20
84 83 83 85 87 88 90 89 87 84 84 84 83 86 91 89 86 88 88 88 88 88 86 82 82 84 84 81 79 78 77 75 72 71 76 77 75 76 77 78 78 77 76 77 78 77 76 72 67 68 70 66 60 60 61 60 58 57 56 56 54 56 60 61 60 58 58 56 54 53 54 55 55 53 49 44 39 38 39 37 37 37 37 37 38 38 39 47 50 41 36 31 26 22 20 18 19
85 83 84 86 87 87 88 85 83 82 81 82 83 86 87 84 85 87 87 87 87 86 84 84 83 83 82 80 78 76 74 73 72 73 76 75 74 75 75 76 76 75 75 77 77 75 74 71 70 71 69 65 63 60 57 54 52 52 51 51 53 55 57 58 57 57 57 55 53 51 51 53 55 52 49 48 45 42 38 36 36 37 38 39 41 42 45 52 49 36 29 25 21 19 18 17 18
85 85 86 88 87 86 86 83 81 80 81 82 83 84 83 82 84 85 84 85 85 83 82 82 80 78 77 75 76 74 72 72 71 71 72 72 72 72 73 73 73 73 73 73 73 72 72 72 72 71 68 66 65 62 57 52 50 48 48 48 50 51 51 54 57 56 53 51 50 48 47 50 52 51 50 51 50 46 41 37 38 39 41 43 45 49 53 55 46 34 27 23 21 18 18 18 17
86 86 88 89 88 86 86 84 79 79 83 84 82 82 82 82 83 82 82 82 82 82 81 80 78 76 73 72 72 73 71 70 68 67 67 67 67 67 69 69 70 68 67 68 69 70 70 71 72 71 69 66 61 57 54 52 53 54 53 49 48 48 49 52 54 50 46 45 44 43 44 46 48 48 50 52 51 47 44 42 41 42 44 47 51 55 57 55 44 33 28 25 23 20 18 18 18
85 87 89 89 89 87 86 85 80 81 85 83 82 83 83 83 82 80 81 82 80 80 80 78 77 77 74 70 69 69 67 63 63 64 63 62 63 65 66 66 65 64 64 66 67 66 65 67 69 68 65 62 57 54 56 59 61 60 58 52 46 45 48 48 44 40 39 42 43 40 41 42 45 48 50 51 49 45 47 47 45 45 47 51 55 56 57 55 43 34 31 28 27 25 21 20 21
83 86 88 89 88 86 86 85 82 83 85 82 83 84 83 84 82 80 82 82 80 79 78 76 76 75 72 68 66 64 60 59 63 66 66 65 66 67 66 65 65 65 66 65 62 57 57 60 62 59 58 60 60 61 64 65 64 58 51 48 45 45 44 41 40 39 41 44 44 43 43 44 44 45 44 43 41 42 47 51 50 49 51 53 53 55 57 53 41 36 34 29 29 28 25 24 24
82 84 86 86 85 85 85 84 83 84 84 82 83 84 83 83 81 80 82 80 78 79 78 76 74 74 71 68 68 66 63 63 65 67 67 67 67 66 66 66 66 64 63 62 56 50 50 53 53 51 51 55 57 60 62 61 58 50 43 44 47 49 47 46 47 48 48 46 46 46 46 45 42 41 40 37 36 37 42 47 49 51 52 50 49 53 56 50 39 38 36 30 28 27 27 25 25
80 81 82 82 82 83 83 82 82 83 83 82 83 83 83 82 80 80 81 79 77 78 77 76 74 73 72 70 69 67 65 64 65 67 67 65 65 65 65 64 63 61 59 58 53 46 45 47 49 51 51 53 55 57 57 54 50 45 43 45 48 50 52 52 51 50 49 49 49 49 44 42 43 42 42 40 37 36 39 44 46 47 46 46 49 55 55 49 42 39 36 31 27 26 26 25 24
76 77 78 79 79 79 79 79 80 80 80 80 80 80 80 78 78 79 80 78 75 75 75 74 73 71 71 71 68 65 63 63 63 64 64 64 64 62 61 61 60 58 55 52 44 39 43 49 54 54 53 55 56 56 54 50 48 44 43 48 50 51 52 52 51 51 51 52 51 49 46 44 44 44 42 40 38 38 42 43 43 43 46 52 59 60 58 54 45 39 37 31 26 25 25 25 24
74 74 75 76 76 75 76 76 77 77 77 77 76 77 76 76 77 78 78 74 72 73 73 72 72 69 69 68 65 63 62 60 59 59 60 61 62 61 61 60 57 53 51 48 41 41 49 55 58 58 57 58 57 56 55 53 52 46 43 49 52 51 51 51 51 52 55 54 51 49 49 48 46 45 44 41 39 41 45 45 47 52 58 66 68 63 58 51 42 37 36 31 26 24 23 24 23
72 73 72 73 73 71 72 73 73 73 73 73 73 73 73 73 75 75 74 71 70 71 70 70 69 66 65 65 63 61 59 57 56 57 57 58 61 63 62 60 57 54 51 49 49 52 55 58 61 62 62 61 59 58 58 57 54 48 43 47 50 50 53 54 55 56 58 58 54 53 53 52 50 47 46 46 45 46 48 51 55 63 69 72 67 59 52 44 38 36 33 28 24 23 23 23 20
71 71 70 70 69 68 70 70 69 69 70 70 69 68 69 70 70 72 71 68 67 69 67 67 67 64 63 63 61 59 57 55 55 55 57 59 60 61 59 58 57 54 52 51 54 56 57 60 63 63 63 62 61 61 60 58 53 48 46 49 52 53 54 55 56 57 56 57 57 56 54 54 53 50 49 50 50 52 54 58 63 67 68 65 59 52 46 40 37 36 32 27 22 21 21 19 17
69 69 67 68 67 67 68 68 67 67 66 65 64 65 65 66 67 69 69 64 64 66 64 64 66 64 61 61 59 57 55 54 55 55 56 57 57 56 57 58 57 54 54 55 56 57 59 62 62 62 63 63 63 61 59 57 53 48 47 50 53 53 53 53 53 53 52 51 52 53 53 53 53 52 52 52 54 57 59 61 63 62 58 54 52 47 42 39 37 38 36 31 25 21 20 17 17
67 67 66 67 66 66 66 67 66 63 63 62 61 62 62 64 65 66 66 61 60 64 63 63 65 63 60 58 57 56 55 53 51 51 52 54 55 55 57 58 56 54 56 58 59 60 60 61 61 61 61 62 61 59 57 56 53 49 48 49 51 51 51 50 49 49 48 46 46 48 50 51 51 53 55 57 59 60 59 57 55 52 50 49 47 44 41 39 38 39 39 36 31 27 23 19 17
66 66 66 66 66 65 65 67 66 60 60 62 59 59 61 61 62 63 62 58 59 63 62 62 63 62 59 55 53 52 52 50 48 49 51 53 54 55 56 55 52 52 56 59 59 57 57 58 58 59 59 59 57 56 54 53 51 49 49 49 50 50 48 46 46 45 44 44 43 45 48 50 54 57 59 59 58 57 54 52 49 47 46 45 43 41 39 38 37 38 39 37 35 31 27 23 21
66 65 65 65 64 64 63 65 65 59 58 61 56 56 61 59 59 62 59 57 59 61 60 60 61 61 56 52 50 49 49 49 50 53 54 54 54 53 53 53 52 53 57 58 56 55 56 57 55 54 55 55 53 51 50 49 48 47 47 48 49 49 47 44 44 44 43 44 46 48 52 55 58 59 58 57 55 53 51 48 46 45 43 42 41 39 37 36 35 35 35 34 33 31 28 26 25
62 62 62 63 62 62 62 63 65 61 56 58 56 55 60 58 57 60 57 56 59 58 57 58 59 58 53 49 47 48 49 49 51 53 52 51 51 51 52 53 53 52 53 54 56 57 55 52 50 50 50 49 47 46 46 46 46 46 46 47 47 46 46 44 44 45 47 49 51 53 55 56 57 56 55 53 52 50 48 46 44 42 41 40 39 38 38 37 34 35 34 31 29 30 28 27 28
58 59 60 61 60 61 62 61 66 63 53 56 56 55 61 58 57 60 56 54 57 57 55 55 57 55 51 47 45 46 47 45 46 47 47 47 48 49 49 49 49 49 50 53 55 54 51 48 45 44 44 44 42 42 43 43 42 43 44 46 47 46 47 47 47 49 51 53 54 55 55 55 55 54 52 50 48 46 44 43 41 40 40 39 38 38 41 39 35 36 37 34 31 31 31 30 30
56 57 58 59 59 61 61 60 66 62 50 54 57 57 61 60 58 59 55 53 55 56 54 52 55 54 48 44 42 44 44 40 40 43 44 45 45 44 42 43 47 49 49 49 48 46 44 42 41 40 39 40 40 41 41 40 39 40 41 44 47 48 51 52 52 53 53 54 56 56 56 56 55 52 49 47 45 43 42 40 39 38 39 39 39 40 43 43 38 37 39 39 35 32 32 33 33
55 56 57 58 58 59 60 61 65 60 51 54 60 60 61 60 57 56 56 54 52 55 53 51 54 52 45 40 40 43 43 39 40 44 45 44 40 39 40 45 48 44 40 35 33 34 33 33 37 39 38 37 37 38 38 37 36 34 35 39 43 46 51 54 54 54 55 56 57 57 58 57 54 49 46 44 43 42 40 38 38 38 38 39 40 42 45 46 44 42 43 43 41 37 34 34 35
53 54 54 55 57 57 59 61 62 58 52 55 62 60 57 57 56 55 57 55 51 54 54 51 52 49 42 38 40 41 40 40 41 39 38 37 37 38 42 43 37 30 23 16 16 21 23 28 34 34 33 34 33 33 32 33 32 28 29 35 38 41 45 49 51 52 53 55 55 56 56 53 49 46 45 44 42 41 39 38 37 37 38 38 39 42 45 47 47 44 44 45 45 44 40 36 36
51 52 52 54 56 55 57 60 59 55 52 56 62 59 54 56 57 56 58 55 51 53 53 50 50 47 41 38 39 39 37 39 36 29 28 33 37 39 38 31 22 14 7 4 15 22 25 30 36 36 33 32 30 30 30 29 28 28 31 33 35 38 41 42 45 46 49 52 53 53 52 50 48 46 45 43 42 41 39 38 37 36 37 38 39 41 44 48 49 47 45 46 48 49 46 41 39
49 50 51 53 53 53 56 57 55 53 54 58 60 57 55 56 57 57 58 55 52 53 52 50 47 45 42 38 38 37 35 34 31 25 27 35 37 31 23 19 13 5 7 16 23 29 33 34 38 42 38 33 30 28 27 26 26 27 30 31 33 36 39 40 40 43 48 51 51 51 50 50 48 46 44 42 42 40 38 37 37 36 35 37 39 40 41 46 51 53 51 49 49 50 50 48 45
47 48 49 50 50 51 52 53 52 52 56 58 57 56 55 56 56 57 57 55 52 52 51 49 47 45 42 38 38 37 31 29 29 27 31 36 31 19 13 17 21 20 22 27 31 36 40 40 42 44 40 35 31 28 27 27 27 28 31 34 35 37 39 39 42 46 49 49 47 47 47 46 44 42 41 39 38 38 37 36 36 36 35 35 38 40 41 42 46 52 55 55 54 53 53 53 51
46 46 46 47 47 48 49 50 50 51 54 54 53 54 55 53 54 55 55 54 51 50 50 48 46 45 42 39 38 37 32 29 27 28 32 32 27 22 21 20 25 30 32 34 37 40 43 45 46 43 38 36 33 31 30 28 29 31 33 36 37 37 39 41 45 48 47 44 42 41 41 40 39 38 37 36 35 35 36 35 35 35 35 35 37 39 41 42 42 45 50 53 55 56 56 56 54
45 44 44 45 45 46 47 47 49 51 52 50 50 53 53 51 52 53 53 51 50 49 48 46 45 43 42 40 38 37 36 35 32 30 29 27 28 33 31 24 24 32 34 35 38 42 45 48 47 43 39 37 35 34 30 28 32 33 31 32 34 37 41 44 46 46 43 40 38 37 36 36 36 35 35 34 33 34 34 35 34 33 34 34 35 37 40 42 43 43 45 47 50 52 54 54 54
44 43 44 45 45 45 45 46 48 50 49 47 48 50 49 49 51 50 49 49 49 47 44 42 42 41 38 37 37 33 35 39 35 30 26 25 31 38 38 34 30 31 34 34 38 43 46 48 49 48 44 40 38 37 32 30 34 35 31 29 31 32 35 37 41 42 40 36 33 31 32 33 33 33 32 32 31 31 32 32 32 32 32 33 34 35 37 40 43 44 45 46 47 49 50 51 53
43 43 45 45 45 45 45 45 47 48 47 46 47 47 45 46 48 47 45 44 44 42 41 41 39 36 36 35 33 29 32 35 30 26 25 28 34 37 40 40 35 33 34 33 36 42 46 48 48 49 49 45 43 42 38 35 37 37 33 29 28 27 26 28 31 32 33 30 27 26 27 29 30 29 29 28 28 28 28 29 29 29 29 29 30 32 34 36 39 41 44 45 47 48 50 51 52
43 44 44 45 45 45 44 45 46 46 45 45 46 46 44 45 46 43 41 39 36 34 35 36 33 31 33 32 27 26 31 31 26 26 30 34 36 35 37 40 38 36 34 31 35 40 44 47 48 50 52 49 46 45 43 41 41 40 37 33 30 27 27 28 27 27 28 27 26 26 26 26 26 26 26 25 25 25 25 25 26 26 26 26 26 27 28 30 32 35 37 40 43 45 47 49 50
43 44 44 45 45 44 43 45 45 45 45 46 46 45 43 43 43 42 41 38 36 32 30 30 27 27 29 29 24 24 33 34 30 32 37 37 37 38 38 39 39 37 32 29 34 40 43 46 48 52 55 54 52 49 48 46 45 44 43 41 37 34 35 33 31 30 31 30 30 29 27 26 24 24 24 23 23 23 23 23 24 25 24 24 24 25 25 25 27 28 29 32 34 36 38 41 43
43 44 43 44 44 44 44 45 46 46 46 46 46 43 43 43 42 41 40 37 36 34 32 31 28 26 28 28 24 24 32 36 35 38 41 37 37 40 41 40 40 40 34 31 35 41 43 44 46 49 53 57 57 54 52 52 51 50 48 46 45 43 42 39 35 33 33 33 32 31 30 29 27 25 24 23 23 23 23 23 24 24 24 25 24 24 24 24 25 25 26 27 28 30 31 33 34
43 44 43 43 44 44 44 45 46 45 44 44 44 42 42 43 42 40 38 35 33 33 34 33 29 27 26 26 26 30 34 35 35 41 42 38 38 41 42 42 42 41 39 37 39 44 46 46 47 49 51 54 55 54 54 54 54 54 52 51 50 48 48 46 43 40 37 35 34 34 36 36 33 29 28 27 27 26 26 25 25 26 26 27 27 26 26 25 26 26 26 27 28 29 30 31 32
44 44 43 43 44 44 44 45 45 44 44 44 44 42 42 43 41 39 38 35 34 33 33 32 29 28 27 26 29 34 35 33 33 39 42 40 39 41 41 41 41 42 42 41 39 40 44 46 48 51 52 53 53 52 54 55 56 57 56 55 54 52 52 52 51 50 46 43 41 41 40 39 37 35 34 34 32 31 29 28 27 28 28 29 29 29 28 28 28 27 27 27 28 28 29 30 32
43 43 44 44 44 45 45 45 45 44 44 44 43 41 42 42 40 37 35 34 33 31 30 30 30 30 30 30 32 34 33 33 34 37 42 44 41 38 37 36 37 39 39 40 38 35 40 46 48 50 52 53 53 53 55 58 59 59 58 56 54 53 53 52 52 53 52 50 48 46 43 41 40 40 39 39 38 35 33 31 30 29 29 30 30 31 31 31 31 30 29 29 29 29 30 31 32
43 44 45 44 45 46 45 44 45 44 44 44 44 43 43 42 39 37 35 33 33 33 32 32 33 34 34 33 34 32 31 32 33 36 41 45 41 35 34 37 40 38 36 38 36 31 35 45 51 51 50 51 52 53 55 58 59 59 59 57 55 54 53 52 51 51 53 52 48 44 43 42 42 43 42 42 42 40 38 35 33 32 32 32 33 34 35 35 34 33 33 32 32 32 32 33 34
43 44 45 45 44 43 44 45 46 45 45 45 46 46 44 43 42 40 37 35 35 36 35 33 33 34 33 32 32 31 31 32 34 36 39 43 42 38 38 43 44 39 37 38 34 29 33 42 50 53 52 51 51 52 54 57 58 59 60 59 58 55 53 51 50 50 52 53 48 44 42 42 44 45 46 46 44 43 42 41 37 35 34 34 36 37 39 40 39 39 38 38 37 37 37 36 36
44 44 45 45 44 44 44 45 44 45 46 47 48 48 45 44 44 42 39 38 35 33 31 29 29 30 30 30 32 33 34 36 36 37 38 41 44 46 48 49 43 35 35 38 37 35 38 44 49 54 54 52 51 51 53 55 58 59 60 60 59 58 55 53 51 49 51 53 51 48 46 46 46 48 50 51 49 46 44 44 42 38 35 36 38 41 44 45 45 44 44 43 43 42 42 41 40
45 45 45 46 46 47 47 45 44 46 48 48 49 48 46 47 47 43 40 37 30 27 27 27 28 30 30 31 32 32 35 38 37 36 38 42 48 52 53 51 44 39 40 43 43 44 45 47 51 54 55 55 54 53 53 54 57 59 60 60 60 59 57 56 54 52 52 54 55 54 54 53 52 53 54 55 55 52 48 47 46 42 39 39 42 46 49 50 50 49 47 46 45 45 45 45 44
Wind_Direction
252 253 254 255 257 258 258 258 258 259 259 260 260 260 261 261 261 261 262 263 264 266 267 267 267 266 265 266 267 269 271 272 273 275 277 279 279 279 279 279 280 281 281 282 283 283 284 284 285 286 287 288 289 290 291 292 293 294 295 296 297 297 298 299 299 299 300 300 301 302 303 304 304 305 305 305 306 306 306 305 305 306 308 309 309 309 310 310 310 308 307 307 307 306 306 307 307
251 251 252 254 255 256 257 257 258 259 259 260 260 260 260 260 260 261 263 263 265 268 267 266 265 265 266 266 267 270 271 271 272 275 277 278 278 278 278 279 280 280 280 281 282 283 284 284 285 286 287 288 290 290 291 292 293 294 294 295 296 297 298 298 298 299 299 300 301 302 303 303 304 304 304 304 305 305 304 304 305 306 308 309 308 308 310 310 309 308 309 309 308 307 305 306 309
250 251 252 253 254 255 256 256 257 258 259 259 260 259 259 260 260 261 263 265 268 268 265 264 263 265 266 266 269 271 270 271 272 275 276 277 278 278 278 278 279 280 280 281 281 282 283 284 285 286 288 288 290 291 291 292 292 293 294 295 296 296 297 297 298 298 299 300 301 302 303 303 303 304 303 303 303 303 303 303 305 307 309 308 308 309 311 310 308 309 311 311 310 307 303 305 310
250 251 252 252 252 253 254 255 256 257 258 258 259 258 258 259 260 261 263 267 268 267 264 263 264 266 267 268 269 270 270 271 273 275 275 276 277 278 278 277 278 279 280 280 281 282 282 283 285 287 288 288 290 291 291 292 292 293 294 295 295 296 296 297 298 298 299 300 300 301 303 303 303 302 302 302 302 302 302 303 306 308 308 307 308 310 311 310 307 309 311 311 310 305 301 305 308
249 250 251 252 252 252 253 254 255 256 257 257 257 257 257 259 260 263 264 265 265 265 263 263 265 267 268 268 269 269 270 271 273 274 275 276 277 277 277 277 278 279 279 280 280 281 282 283 285 287 288 289 290 290 291 291 292 293 294 295 295 296 297 297 298 298 299 300 301 302 302 302 301 300 299 300 301 301 302 304 307 308 305 306 309 310 309 307 306 308 310 310 307 302 302 306 306
248 249 249 250 251 252 252 253 254 255 255 255 256 257 257 258 261 263 263 262 263 263 263 264 266 266 267 267 268 269 270 271 272 273 274 275 276 276 276 277 278 279 279 280 280 281 282 284 285 286 287 288 289 290 290 290 291 292 293 294 295 296 296 297 298 298 299 300 301 301 301 300 298 298 299 300 301 301 302 305 307 305 302 305 308 308 306 304 304 307 309 309 305 301 302 306 306
250 249 249 250 251 251 252 252 253 254 255 255 255 256 256 258 260 261 261 260 260 261 263 265 265 265 266 267 268 269 270 271 272 273 274 274 274 275 276 277 278 279 279 279 280 281 283 284 285 286 287 287 288 289 289 290 291 292 293 295 296 296 297 297 298 298 298 299 299 299 299 298 298 300 300 301 300 301 303 305 306 302 300 304 306 305 303 303 305 308 309 310 308 304 303 305 307
251 251 251 252 252 252 252 252 253 253 254 254 255 256 256 258 259 259 259 259 258 260 263 264 264 265 265 266 267 268 269 270 271 272 273 273 274 275 277 277 277 278 278 279 281 282 283 284 286 286 286 287 288 288 289 291 291 293 294 295 296 297 297 298 298 297 297 296 298 299 298 297 298 300 300 300 301 303 304 304 304 300 300 304 304 302 302 306 309 310 309 310 310 308 307 308 311
252 252 253 253 254 254 253 253 253 253 254 254 256 257 257 258 258 258 257 258 259 260 261 263 264 264 264 265 265 266 268 269 270 271 272 273 274 275 275 275 276 277 278 279 281 282 284 285 285 285 285 286 287 288 290 291 292 293 293 294 296 297 298 297 296 295 294 296 299 299 298 297 297 297 297 300 302 303 304 303 301 298 300 303 302 300 303 307 310 310 308 309 308 309 312 313 314
253 253 253 254 254 254 254 254 254 254 254 254 255 257 259 259 259 258 258 258 259 260 260 261 262 263 263 264 264 265 267 268 270 271 272 273 274 274 274 274 275 276 278 280 281 282 283 284 283 284 285 286 288 289 290 291 291 291 291 294 296 297 297 295 293 295 297 299 299 298 298 297 295 295 297 301 302 302 301 300 298 298 301 302 300 299 303 306 308 308 306 307 308 310 314 314 313
252 253 253 253 254 254 254 255 255 254 254 254 254 256 258 259 258 258 259 259 259 260 260 261 261 262 263 263 264 265 267 268 269 270 271 272 273 273 273 274 275 277 278 279 280 281 281 281 281 283 285 287 288 288 288 288 287 289 291 294 294 295 294 291 294 299 299 299 298 297 298 295 293 295 298 300 301 299 297 296 297 300 301 300 299 301 302 303 304 305 304 306 308 309 312 313 311
252 252 253 253 253 254 254 254 255 254 255 255 255 256 256 257 258 257 258 259 260 260 260 260 261 262 263 264 264 266 267 268 269 270 271 271 272 273 273 274 276 277 278 278 278 279 280 280 281 282 284 285 285 285 285 286 287 290 291 292 291 290 289 290 296 299 297 297 298 296 296 292 292 296 298 299 299 295 293 295 299 301 300 299 300 302 303 304 305 305 305 306 307 308 310 311 308
253 253 253 253 253 253 254 254 254 254 255 255 256 256 256 257 258 258 259 259 260 260 260 260 262 263 263 264 265 266 268 269 270 270 270 271 272 273 274 274 275 276 277 277 277 277 278 279 280 281 282 282 283 284 285 286 288 289 290 290 290 286 285 290 295 295 294 296 297 294 292 290 292 298 300 298 295 292 294 298 300 299 298 299 299 303 306 308 308 306 305 306 308 310 311 311 308
253 253 253 253 254 254 254 254 254 254 254 255 256 257 257 257 257 259 260 259 259 260 260 261 262 263 264 265 266 267 268 268 269 269 270 270 271 271 272 273 273 274 275 275 275 276 278 279 281 281 281 283 283 284 285 288 288 289 289 288 285 282 285 291 293 291 292 294 295 292 289 289 294 299 297 294 293 295 298 300 299 297 297 298 301 306 309 309 309 307 307 310 314 314 311 310 310
252 252 253 253 254 254 254 254 254 254 254 256 257 257 257 257 258 259 259 259 259 260 261 262 262 263 264 265 266 267 267 268 269 269 270 270 271 271 272 273 273 272 273 273 275 277 279 281 283 283 283 283 285 287 288 288 288 287 286 284 283 284 287 290 289 288 291 292 291 289 288 291 295 296 293 294 297 298 300 300 298 298 299 302 306 308 309 309 310 311 312 315 317 316 313 309 306
251 252 252 253 253 253 254 254 254 254 255 256 257 257 257 257 258 258 258 259 260 261 262 262 263 264 265 266 266 267 267 268 269 269 270 271 272 272 272 273 272 273 274 276 278 278 279 281 283 284 283 283 286 289 290 287 286 284 284 285 286 287 288 288 288 288 289 289 288 288 290 293 293 292 293 297 299 300 301 302 303 304 305 307 308 307 307 307 309 310 311 315 318 317 314 309 305
251 251 252 252 252 253 253 253 254 254 255 256 257 259 258 256 255 256 257 258 259 260 261 262 263 264 264 265 266 267 268 268 268 268 270 271 270 270 271 271 272 274 275 278 279 278 279 281 281 283 284 284 286 288 287 286 285 284 285 286 287 287 288 289 288 286 285 286 288 290 292 292 291 292 296 299 299 301 304 307 308 308 307 306 303 301 303 306 309 311 312 315 317 315 314 311 304
252 251 251 252 252 253 253 253 253 253 255 257 258 258 257 255 255 256 257 258 259 260 261 262 263 263 264 265 266 267 268 268 269 270 271 270 269 270 269 270 273 275 275 276 276 278 279 280 280 282 283 285 287 285 283 283 283 285 286 286 286 287 290 289 285 284 284 286 289 290 291 289 290 295 299 301 300 303 307 309 309 306 303 300 298 299 303 308 313 315 316 318 317 314 314 310 303
252 252 252 252 252 252 252 252 253 253 256 257 256 256 256 256 256 257 258 258 259 260 261 262 262 263 263 264 266 267 268 269 271 272 270 268 267 268 269 271 273 273 274 274 276 278 278 279 281 282 282 284 285 283 281 281 282 284 285 285 287 287 287 285 283 285 286 287 288 288 287 285 288 292 293 296 297 299 301 303 305 303 298 297 296 299 304 312 318 319 320 321 318 314 313 310 302
252 252 252 252 252 252 252 252 253 254 256 256 256 255 256 256 257 257 258 259 259 259 260 261 262 262 263 264 265 267 268 269 270 269 268 267 267 269 271 272 272 272 273 274 275 277 278 280 281 281 282 283 283 282 282 282 284 285 285 284 284 283 282 282 283 284 284 285 286 285 284 282 285 286 286 286 285 287 291 296 301 297 295 294 295 298 304 314 321 322 321 320 315 311 312 311 303
252 252 252 252 252 252 252 253 255 255 255 256 256 255 255 256 257 257 258 258 259 260 260 260 261 262 263 264 264 266 267 269 269 267 267 269 270 271 271 271 272 272 273 274 275 277 278 279 279 279 281 282 282 283 282 282 284 283 281 280 279 280 281 282 282 282 283 284 285 284 283 284 285 284 282 279 278 284 288 291 292 290 292 294 296 299 305 314 321 321 318 314 308 307 311 313 307
251 251 251 251 251 252 253 254 255 255 255 256 255 255 256 257 257 257 257 258 259 260 261 261 261 262 263 264 264 265 267 268 268 268 268 270 270 270 270 271 272 273 274 274 275 276 277 278 278 279 280 281 281 281 280 281 282 279 277 278 279 282 284 283 282 284 285 287 287 285 284 284 284 284 279 275 276 281 283 282 282 284 289 294 299 302 307 314 318 316 312 305 300 305 310 315 315
250 250 250 251 251 252 253 253 253 255 255 255 255 256 257 256 257 257 258 258 259 260 260 261 262 262 263 263 263 263 264 267 268 268 270 271 270 270 271 272 272 273 274 274 275 276 278 278 279 280 280 280 280 278 277 277 278 279 279 279 283 286 285 283 284 287 287 287 287 286 285 281 280 281 278 277 276 274 274 274 276 279 284 291 299 304 308 313 314 311 309 301 297 300 305 313 319
249 249 250 250 251 251 252 253 252 253 254 254 255 256 256 256 256 258 258 259 259 259 260 260 260 261 261 262 263 262 262 265 267 269 270 271 271 271 272 272 273 273 274 274 276 278 279 279 280 281 280 280 279 275 273 273 275 279 281 281 286 284 280 280 284 287 284 284 285 284 285 280 277 278 278 279 276 269 265 267 272 275 281 288 296 302 305 309 308 304 306 304 300 300 300 306 316
249 249 249 249 250 250 251 252 251 252 253 254 255 255 255 256 256 257 258 258 259 259 259 260 260 260 260 260 262 262 262 263 266 267 269 269 270 272 273 272 272 273 274 276 278 281 282 282 281 279 278 276 274 269 270 273 275 279 279 279 280 277 274 276 279 280 278 281 281 279 281 280 278 279 279 278 276 269 261 263 271 275 280 285 292 298 302 306 303 295 299 300 298 299 294 296 306
248 248 248 249 249 250 250 251 250 251 252 253 254 254 254 255 256 257 257 258 259 259 259 259 260 260 259 259 259 260 260 261 263 265 267 268 269 271 272 272 273 274 274 276 280 283 283 282 281 277 275 273 271 270 271 274 275 277 276 273 270 267 268 268 269 273 276 278 278 276 279 282 281 279 278 277 276 271 263 264 269 274 278 280 286 294 299 303 297 288 293 294 294 295 290 290 295
247 247 248 248 249 249 249 250 250 250 251 251 252 253 254 255 255 256 257 257 258 259 259 259 259 260 259 259 259 258 258 258 260 262 264 266 268 270 271 273 275 275 275 276 279 281 279 278 276 275 275 273 272 274 275 275 275 272 270 270 267 263 263 264 266 271 274 274 276 281 284 283 281 276 273 274 274 271 266 266 268 272 275 276 280 290 297 300 292 283 286 289 290 291 287 285 288
247 247 248 248 248 248 249 249 249 250 250 251 251 253 254 255 255 256 256 256 258 259 260 259 259 259 260 260 260 259 259 258 259 260 262 265 267 269 271 273 275 276 276 278 281 279 273 271 271 274 276 274 275 277 277 276 274 268 265 267 265 263 263 266 267 268 270 271 275 282 283 279 275 270 267 266 264 264 266 267 270 271 272 275 282 290 295 296 291 282 279 281 285 287 285 283 285
248 247 248 248 248 248 248 249 249 249 250 250 251 253 253 254 254 254 255 256 257 258 259 259 259 259 260 261 261 261 260 259 259 259 261 264 267 268 270 272 275 277 277 279 281 274 267 266 269 274 274 275 277 277 276 276 274 268 263 260 261 263 263 265 267 266 270 273 275 278 277 275 270 266 262 259 256 261 269 272 276 277 278 284 289 291 291 291 288 279 272 274 279 284 285 283 284
247 247 247 247 247 248 248 248 249 249 249 250 251 252 253 253 253 254 255 256 256 257 258 259 260 259 260 261 261 261 261 260 259 259 261 263 265 268 270 272 272 274 276 275 271 264 264 267 270 272 273 274 276 276 276 276 274 271 263 256 257 260 258 261 264 266 270 274 273 273 273 274 270 265 261 256 253 260 272 278 282 285 287 290 291 289 287 285 280 271 266 267 272 280 282 283 285
246 246 246 247 247 248 248 248 248 249 249 250 250 251 252 253 254 254 255 255 255 256 257 258 259 259 260 260 261 261 261 260 259 261 264 264 265 268 270 270 270 271 272 270 268 265 264 267 270 273 274 274 275 276 276 276 274 271 263 255 253 256 258 262 266 267 269 268 267 269 270 271 269 265 261 259 257 260 269 275 280 285 289 289 287 284 281 277 270 263 260 261 266 276 282 284 282
246 246 246 247 247 247 248 248 248 248 249 249 250 251 252 252 253 254 253 253 255 256 256 258 258 258 258 259 260 260 260 259 260 263 266 267 268 268 268 268 269 270 270 268 268 267 265 267 270 272 275 275 275 275 275 275 274 270 264 258 257 260 264 267 268 267 265 263 262 265 267 267 266 264 263 265 266 268 272 274 278 283 285 284 281 279 276 270 262 256 254 255 259 271 281 279 271
246 246 246 247 247 246 247 248 247 248 249 249 250 250 251 252 252 254 254 253 254 256 255 256 257 257 257 258 259 260 260 260 262 265 265 266 266 267 268 268 269 269 268 268 268 269 269 271 272 273 275 277 276 274 274 274 274 271 266 261 259 262 265 267 267 263 260 260 260 262 263 264 264 267 270 273 276 278 279 280 282 282 282 280 276 274 268 261 256 252 252 253 251 260 271 266 265
245 246 245 245 245 245 246 247 246 247 249 248 249 250 250 251 252 253 254 252 253 254 254 255 256 256 256 257 258 259 260 261 263 262 260 263 266 268 269 269 269 268 269 271 271 271 271 272 274 275 275 275 275 275 275 274 272 270 266 261 258 258 263 266 262 257 254 254 256 258 259 262 267 272 276 279 283 286 287 288 287 284 281 278 273 267 261 255 252 251 252 254 251 252 258 257 255
243 243 243 243 244 244 245 247 246 245 247 248 247 250 250 250 251 252 253 252 251 252 253 254 256 256 255 257 258 260 261 260 260 260 261 265 267 268 269 269 270 271 272 273 273 273 273 275 277 277 275 274 275 276 276 274 272 269 265 261 255 253 260 262 252 247 247 250 252 256 260 266 273 278 282 286 291 293 294 293 291 287 282 276 269 261 254 249 247 249 251 254 252 248 250 247 239
242 242 243 243 243 244 244 247 247 243 245 248 246 248 250 249 251 252 251 250 250 251 253 254 255 256 256 256 257 259 259 258 259 262 265 267 267 267 269 272 273 275 275 274 275 277 278 279 279 278 276 275 275 275 275 274 272 269 264 259 254 253 258 254 244 243 247 253 257 261 268 275 281 286 290 294 297 297 296 295 292 288 281 273 265 254 245 243 243 246 249 251 249 246 245 239 235
242 243 243 243 243 244 244 245 248 243 241 247 246 246 250 249 249 251 250 250 250 251 252 254 255 256 256 256 256 257 258 259 260 262 264 266 266 269 272 275 275 274 275 277 280 281 282 282 280 279 277 275 276 276 274 272 269 266 261 257 253 251 252 248 244 247 253 261 267 272 278 283 289 293 296 298 298 297 295 293 290 286 279 270 260 248 238 239 241 241 242 242 242 241 241 238 239
241 241 241 241 241 241 242 243 246 243 239 244 246 245 249 248 248 250 249 249 252 252 251 254 256 256 255 255 255 258 258 260 262 263 265 265 267 271 274 273 274 276 279 283 285 285 286 287 283 279 278 277 277 276 274 272 267 263 259 256 251 247 247 248 250 254 259 268 276 281 285 291 296 298 298 298 296 294 292 291 287 283 278 267 255 243 233 235 241 239 237 236 237 240 241 242 246
239 239 239 239 239 240 241 241 244 244 239 242 245 243 247 247 246 249 250 249 252 254 252 253 256 255 254 254 255 257 256 258 262 264 266 269 272 272 271 274 279 283 285 288 291 291 292 292 289 286 284 281 278 275 273 270 266 262 260 256 252 247 246 250 254 258 264 273 279 284 288 293 296 296 296 295 293 292 289 287 283 280 276 266 254 240 231 232 238 238 236 236 237 240 243 244 250
236 237 237 238 238 239 240 240 243 244 239 241 243 242 244 248 248 250 251 249 250 254 254 253 255 256 254 254 254 254 254 254 257 262 267 272 274 272 273 281 285 287 292 297 297 300 301 295 291 289 286 282 278 275 272 267 265 263 259 255 252 249 248 250 254 259 266 273 278 283 287 291 292 293 294 293 292 290 287 283 280 276 272 265 255 243 234 232 235 237 237 236 238 241 246 250 254
236 237 237 238 238 239 240 241 242 243 240 241 245 244 245 249 250 250 251 249 249 252 254 253 255 257 256 255 253 254 254 253 258 267 273 272 272 274 280 286 290 296 310 313 288 290 293 286 286 286 283 279 276 274 269 264 261 254 249 253 253 252 251 251 253 258 264 271 277 282 285 288 290 292 292 292 291 288 285 280 276 271 265 261 256 247 239 235 236 238 237 236 238 242 248 254 256
235 236 236 237 237 238 240 242 242 243 241 242 245 245 245 248 249 249 251 250 250 252 253 254 256 258 257 255 255 255 255 255 260 269 271 269 273 279 285 293 305 322 338 263 250 260 262 268 276 276 274 275 273 270 265 259 255 243 238 248 252 252 252 252 253 258 266 274 280 284 286 288 289 289 289 288 288 285 282 277 272 267 261 256 253 249 244 238 237 239 240 239 240 242 247 251 253
235 235 236 237 238 238 240 243 243 243 241 242 245 245 245 248 249 250 251 251 251 253 255 255 256 257 256 255 256 256 255 252 252 253 255 263 273 282 286 291 300 294 213 219 229 240 245 249 260 264 265 270 272 272 266 258 253 241 235 243 248 248 251 253 255 264 274 281 284 285 286 287 285 284 284 283 283 281 277 273 269 264 258 253 250 248 246 241 238 240 242 244 244 244 247 250 252
234 235 236 237 238 239 241 243 244 244 243 243 245 246 245 247 249 251 252 252 252 254 256 256 256 257 255 253 253 251 248 246 244 241 244 254 265 266 245 249 258 243 223 221 222 230 238 239 245 252 256 261 269 273 269 262 257 244 234 240 246 248 252 257 263 272 279 282 283 283 284 283 282 281 281 280 280 278 275 270 267 263 258 252 248 246 245 243 241 241 242 244 246 247 247 250 253
234 234 236 237 238 239 241 242 242 243 245 245 246 247 247 247 250 252 253 253 253 254 256 257 257 257 256 253 250 247 243 241 239 235 238 246 245 225 211 225 249 246 234 232 235 238 240 241 244 248 252 258 265 266 264 262 256 241 232 237 244 249 255 262 268 275 280 281 281 282 282 282 280 279 278 277 277 276 274 270 266 262 259 255 250 247 244 243 242 242 243 244 246 247 248 250 253
234 234 236 237 237 238 240 241 242 242 244 245 246 248 248 248 250 252 254 255 255 254 255 257 258 258 258 254 249 245 240 241 243 241 241 240 222 207 202 204 227 242 241 240 245 250 251 251 251 251 252 258 261 257 256 256 247 234 229 238 248 254 259 263 269 274 277 278 279 280 281 279 277 276 276 275 275 274 273 271 267 263 259 256 253 250 247 245 244 244 244 244 244 246 247 248 250
232 233 234 235 235 236 238 240 241 242 242 244 245 247 249 250 250 250 252 254 255 256 257 258 258 257 257 254 248 244 239 239 242 241 236 225 209 202 201 201 211 232 241 241 245 253 256 256 256 255 254 255 255 252 251 252 245 233 228 238 251 259 263 266 271 272 272 274 277 281 281 276 273 275 275 275 275 274 272 270 268 264 260 257 255 253 251 249 247 246 246 246 246 246 247 249 250
231 231 233 234 234 234 236 238 241 242 242 243 244 246 247 249 250 250 251 254 257 258 257 256 257 257 255 252 247 239 233 232 229 226 230 223 211 205 204 204 207 220 234 240 245 251 254 255 254 253 253 253 251 250 251 253 250 240 233 237 247 256 264 270 272 271 270 272 277 284 284 277 275 276 277 276 276 274 273 271 269 267 263 260 257 256 254 252 251 250 250 250 250 250 251 252 253
232 232 233 235 235 234 235 237 239 241 242 242 243 244 245 247 250 250 251 253 255 257 257 257 257 257 254 252 247 232 226 225 219 220 230 225 212 206 208 209 210 214 222 232 242 250 253 253 251 250 251 251 249 248 250 251 250 245 240 241 244 252 262 268 269 271 273 274 278 285 286 282 281 281 280 277 276 274 273 272 270 269 266 263 261 259 258 257 255 254 254 254 254 254 255 256 256
232 233 233 235 236 235 236 238 239 240 240 241 242 243 244 246 248 250 250 250 249 251 255 255 253 250 249 247 242 235 232 230 223 222 228 224 214 208 211 216 215 217 223 230 241 250 255 256 253 250 250 249 249 249 249 250 249 246 245 246 248 255 263 266 266 269 274 276 277 280 281 283 285 286 285 282 279 276 274 272 270 268 266 263 261 261 261 261 260 259 259 259 258 259 259 259 259
233 234 234 236 237 237 236 238 239 239 240 242 244 244 244 246 248 250 250 250 249 248 247 248 247 247 249 246 233 228 236 235 225 222 224 224 219 213 216 223 223 224 232 239 244 250 256 258 257 254 251 249 250 251 251 252 251 249 249 250 253 256 259 263 266 269 270 272 275 275 277 282 286 287 287 286 283 281 278 276 273 270 267 264 261 261 261 262 264 264 263 263 263 263 263 263 264
233 233 233 235 237 238 238 239 240 241 242 244 245 245 245 247 248 249 249 249 250 248 245 244 242 240 243 244 230 222 231 234 223 219 221 223 223 218 220 229 229 228 234 242 250 255 258 259 259 259 256 251 250 251 250 250 248 248 250 253 256 256 256 260 265 268 268 268 271 274 277 281 282 282 284 284 284 285 282 279 276 274 272 268 264 263 263 264 265 267 268 267 266 265 265 266 267
233 234 233 234 236 238 238 239 241 241 242 244 244 244 245 246 247 248 249 248 246 246 244 239 234 232 233 236 235 230 233 234 224 220 222 224 224 224 228 233 231 231 237 243 251 261 265 264 262 263 261 255 252 250 248 247 246 248 250 253 256 256 256 258 260 264 266 267 271 275 277 279 278 278 281 280 281 284 284 281 278 276 275 272 269 266 267 268 268 269 270 271 271 271 270 270 270
232 234 234 233 235 236 237 240 241 242 243 244 245 245 246 247 246 245 245 244 244 243 240 233 228 229 230 234 240 241 239 236 229 224 223 224 227 233 240 242 235 231 236 241 245 255 266 269 267 266 263 258 254 251 249 248 248 250 252 254 255 256 256 257 257 259 262 266 271 274 274 274 274 276 278 277 276 278 281 282 280 279 278 276 273 271 272 273 273 272 272 273 274 274 275 275 275
232 234 235 234 236 237 239 240 241 242 244 245 244 243 243 246 246 243 241 242 242 241 238 234 233 236 239 240 242 243 240 235 230 226 223 224 227 232 239 244 239 231 231 238 241 247 259 265 266 264 261 258 256 255 253 252 253 254 255 255 256 256 257 256 256 257 258 262 267 269 269 270 270 270 274 275 272 270 272 277 280 280 280 279 277 276 277 277 276 276 276 277 276 276 276 277 278
232 233 235 235 237 239 240 240 241 242 244 245 245 243 242 244 245 244 244 242 240 241 243 242 241 243 243 238 236 237 237 233 229 226 224 223 224 225 231 238 238 233 231 233 233 234 245 255 260 260 259 259 260 259 258 257 257 257 257 258 258 258 257 256 256 256 256 257 259 262 264 266 267 266 269 272 270 266 266 270 276 280 282 283 283 281 280 278 276 276 277 278 279 278 277 276 277
233 232 233 234 234 236 238 240 242 242 243 244 246 246 244 244 243 242 243 243 243 245 247 244 241 239 235 233 236 240 240 237 233 229 226 222 222 225 231 237 237 232 230 228 223 228 240 248 254 257 258 261 263 262 261 259 259 259 258 259 259 259 258 256 254 253 253 253 254 257 258 260 263 265 267 270 271 269 267 266 270 277 281 285 288 288 286 283 278 276 276 276 277 278 278 277 277
234 231 232 233 232 233 235 237 239 240 241 242 244 246 244 243 243 240 239 243 246 245 240 233 230 230 229 232 238 243 246 245 240 234 228 223 223 228 234 237 235 229 228 228 225 229 238 246 252 256 259 262 263 262 261 260 260 260 259 259 260 259 258 256 254 251 251 250 251 254 256 257 260 263 266 269 270 272 272 268 268 271 276 282 289 290 288 285 282 278 277 276 275 276 277 277 277